AAL1181 KDFW-KLAX

Flight info

Callsign AAL1181
Flight time N/A
Altitude 34000
Route KATZZ2 BRHMA CNX ONM SJN DRK J231 HIPPI GABBL HLYWD1
Aircraft A321/M-SDE3FGHIRWY/LB1

Departure

Time 2026-05-07 16:46
Airport Dallas Fort Worth International Airport (KDFW)

Arrival

Time N/A
Airport Los Angeles International Airport (KLAX)
Time Latitude Longitude Altitude Speed Heading
2026-05-07 16:16 32.90004 -97.04529 599 ft 0 kts 178°
2026-05-07 16:35 32.90023 -97.04530 599 ft 4 kts 174°
2026-05-07 16:35 32.90048 -97.04532 599 ft 2 kts 178°
2026-05-07 16:35 32.90069 -97.04531 599 ft 4 kts 214°
2026-05-07 16:36 32.90081 -97.04508 598 ft 4 kts 268°
2026-05-07 16:36 32.90081 -97.04517 598 ft 4 kts 270°
2026-05-07 16:36 32.90081 -97.04525 598 ft 0 kts 270°
2026-05-07 16:39 32.90081 -97.04527 598 ft 1 kts 270°
2026-05-07 16:39 32.90081 -97.04567 598 ft 9 kts 270°
2026-05-07 16:40 32.90082 -97.04671 598 ft 14 kts 270°
2026-05-07 16:40 32.90055 -97.04760 598 ft 11 kts 199°
2026-05-07 16:40 32.89958 -97.04763 599 ft 16 kts 179°
2026-05-07 16:40 32.89840 -97.04763 597 ft 21 kts 180°
2026-05-07 16:41 32.89683 -97.04764 598 ft 23 kts 181°
2026-05-07 16:41 32.89525 -97.04765 597 ft 23 kts 180°
2026-05-07 16:41 32.89358 -97.04765 594 ft 24 kts 180°
2026-05-07 16:41 32.89191 -97.04765 594 ft 24 kts 180°
2026-05-07 16:42 32.89016 -97.04766 590 ft 26 kts 181°
2026-05-07 16:42 32.88835 -97.04769 591 ft 26 kts 180°
2026-05-07 16:42 32.88657 -97.04769 588 ft 25 kts 180°
2026-05-07 16:42 32.88520 -97.04773 587 ft 13 kts 193°
2026-05-07 16:43 32.88494 -97.04790 588 ft 13 kts 213°
2026-05-07 16:43 32.88338 -97.04807 589 ft 16 kts 179°
2026-05-07 16:43 32.88219 -97.04806 587 ft 18 kts 180°
2026-05-07 16:43 32.88090 -97.04806 586 ft 19 kts 180°
2026-05-07 16:44 32.87964 -97.04808 587 ft 12 kts 181°
2026-05-07 16:44 32.87912 -97.04864 586 ft 12 kts 271°
2026-05-07 16:44 32.87913 -97.04970 585 ft 13 kts 270°
2026-05-07 16:44 32.87917 -97.05075 587 ft 12 kts 290°
2026-05-07 16:45 32.88000 -97.05090 589 ft 18 kts
2026-05-07 16:45 32.88352 -97.05087 591 ft 84 kts
2026-05-07 16:45 32.89142 -97.05086 591 ft 141 kts
2026-05-07 16:45 32.90265 -97.05078 638 ft 180 kts
2026-05-07 16:46 32.91534 -97.05079 1174 ft 184 kts
2026-05-07 16:46 32.92830 -97.05107 1802 ft 188 kts 360°
2026-05-07 16:46 32.94125 -97.05164 2402 ft 190 kts 359°
2026-05-07 16:46 32.95432 -97.05611 2614 ft 208 kts 337°
2026-05-07 16:47 32.96840 -97.06301 2748 ft 231 kts 340°
2026-05-07 16:47 32.98401 -97.06983 3169 ft 243 kts 341°
2026-05-07 16:47 32.99973 -97.07749 3819 ft 246 kts 328°
2026-05-07 16:47 33.01058 -97.09307 4491 ft 252 kts 291°
2026-05-07 16:48 33.01327 -97.11376 5211 ft 255 kts 272°
2026-05-07 16:48 33.01234 -97.13482 6022 ft 254 kts 266°
2026-05-07 16:48 33.01029 -97.15556 6834 ft 251 kts 264°
2026-05-07 16:48 33.00803 -97.17623 7488 ft 254 kts 263°
2026-05-07 16:49 33.00541 -97.19737 8011 ft 261 kts 263°
2026-05-07 16:49 33.00274 -97.21882 8673 ft 262 kts 263°
2026-05-07 16:49 32.99906 -97.24014 9348 ft 265 kts 252°
2026-05-07 16:49 32.99102 -97.26002 10032 ft 268 kts 244°
2026-05-07 16:50 32.98192 -97.27984 10362 ft 282 kts 244°
2026-05-07 16:50 32.97234 -97.30122 10492 ft 303 kts 245°
2026-05-07 16:50 32.96220 -97.32411 10601 ft 322 kts 245°
2026-05-07 16:50 32.95152 -97.34823 10864 ft 334 kts 245°
2026-05-07 16:51 32.94060 -97.37277 11429 ft 337 kts 245°
2026-05-07 16:51 32.92957 -97.39745 12015 ft 339 kts 244°
2026-05-07 16:51 32.91847 -97.42220 12636 ft 340 kts 245°
2026-05-07 16:51 32.90732 -97.44704 13284 ft 341 kts 245°
2026-05-07 16:52 32.89617 -97.47194 13945 ft 341 kts 245°
2026-05-07 16:52 32.88499 -97.49691 14515 ft 342 kts 245°
2026-05-07 16:52 32.87379 -97.52195 14962 ft 344 kts 245°
2026-05-07 16:52 32.86247 -97.54714 15507 ft 346 kts 245°
2026-05-07 16:53 32.85118 -97.57215 16048 ft 348 kts 245°
2026-05-07 16:53 32.83971 -97.59758 16568 ft 351 kts 245°
2026-05-07 16:53 32.82817 -97.62324 17087 ft 353 kts 245°
2026-05-07 16:53 32.81655 -97.64910 17608 ft 355 kts 245°
2026-05-07 16:54 32.80484 -97.67514 18145 ft 358 kts 245°
2026-05-07 16:54 32.79371 -97.70165 18618 ft 358 kts 251°
2026-05-07 16:54 32.78724 -97.73015 19067 ft 358 kts 262°
2026-05-07 16:54 32.78642 -97.75972 19516 ft 360 kts 274°
2026-05-07 16:55 32.79115 -97.78903 19955 ft 363 kts 283°
2026-05-07 16:55 32.79805 -97.81802 20392 ft 365 kts 283°
2026-05-07 16:55 32.80489 -97.84711 20819 ft 367 kts 282°
2026-05-07 16:55 32.81170 -97.87637 21331 ft 368 kts 282°
2026-05-07 16:56 32.81856 -97.90583 21736 ft 370 kts 282°
2026-05-07 16:56 32.82543 -97.93540 22130 ft 372 kts 282°
2026-05-07 16:56 32.83931 -97.99505 22891 ft 376 kts 282°
2026-05-07 16:57 32.84635 -98.02519 23260 ft 379 kts 282°
2026-05-07 16:57 32.85342 -98.05544 23630 ft 380 kts 282°
2026-05-07 16:57 32.86050 -98.08581 23959 ft 382 kts 282°
2026-05-07 16:57 32.86756 -98.11632 24275 ft 384 kts 281°
2026-05-07 16:58 32.87464 -98.14701 24589 ft 385 kts 281°
2026-05-07 16:58 32.88173 -98.17776 24900 ft 386 kts 281°
2026-05-07 16:58 32.88886 -98.20864 25240 ft 388 kts 281°
2026-05-07 16:58 32.89603 -98.23954 25580 ft 388 kts 281°
2026-05-07 16:59 32.90322 -98.27049 25899 ft 388 kts 280°
2026-05-07 16:59 32.91041 -98.30159 26199 ft 389 kts 280°
2026-05-07 16:59 32.91747 -98.33235 26496 ft 390 kts 280°
2026-05-07 16:59 32.92463 -98.36361 26785 ft 392 kts 279°
2026-05-07 17:00 32.93181 -98.39491 27066 ft 393 kts 279°
2026-05-07 17:00 32.93901 -98.42632 27357 ft 394 kts 279°
2026-05-07 17:00 32.94623 -98.45785 27648 ft 395 kts 279°
2026-05-07 17:00 32.95348 -98.48946 27936 ft 396 kts 279°
2026-05-07 17:01 32.96074 -98.52111 28226 ft 397 kts 278°
2026-05-07 17:01 32.96802 -98.55293 28502 ft 398 kts 278°
2026-05-07 17:01 32.97526 -98.58465 28884 ft 397 kts 278°
2026-05-07 17:01 32.98246 -98.61626 29299 ft 394 kts 278°
2026-05-07 17:02 32.98963 -98.64771 29707 ft 392 kts 278°
2026-05-07 17:02 32.99676 -98.67892 30107 ft 390 kts 277°
2026-05-07 17:02 33.00384 -98.71007 30460 ft 388 kts 277°
2026-05-07 17:02 33.01089 -98.74117 30738 ft 388 kts 277°
2026-05-07 17:03 33.01790 -98.77222 30995 ft 388 kts 277°
2026-05-07 17:03 33.02491 -98.80332 31268 ft 388 kts 277°
2026-05-07 17:03 33.03189 -98.83429 31557 ft 387 kts 277°
2026-05-07 17:03 33.03887 -98.86524 31850 ft 386 kts 277°
2026-05-07 17:04 33.04585 -98.89608 32140 ft 385 kts 277°
2026-05-07 17:04 33.05279 -98.92683 32437 ft 384 kts 277°
2026-05-07 17:04 33.05972 -98.95758 32717 ft 383 kts 277°
2026-05-07 17:04 33.06661 -98.98824 32994 ft 382 kts 277°
2026-05-07 17:05 33.07348 -99.01880 33273 ft 381 kts 277°
2026-05-07 17:05 33.08031 -99.04931 33545 ft 380 kts 277°
2026-05-07 17:05 33.08710 -99.07980 33821 ft 380 kts 276°
2026-05-07 17:05 33.09387 -99.11021 34069 ft 380 kts 277°
2026-05-07 17:06 33.10743 -99.17109 34168 ft 379 kts 277°